Volver al catálogo

STARLINK-11411

ActivoComunicacionesVLEO
NORAD 62018·PAYLOAD·🇺🇸 United States

Lanzado Nov 18, 2024 desde Vandenberg Space Force Base

Loading…

Próximos Pases (próximas 24 horas)

TLE

ActualizadoSource: CelesTrak SupGP

Época: Sep 15, 2026, 03:40 UTC

1 62018C 24213L   26258.15326389 -.00024554  00000+0 -20219-3 0  2585
2 62018  53.1569 187.2756 0001246  85.6445 237.6689 15.69729389    10

Sigue STARLINK-11411 en tiempo real con AllMySat

Download on the App Store